Simultaneous Nadir Overpasses (SNOs) Predictions

Prediction of SNOs between METOP-B and NOAA-19 Satellite Orbit:

Table of predicted SNOs for the next 14.0 days since TLE Epoch: 10/28/2017
Index Date (METOP-B) Time (METOP-B) Lat,Lon (METOP-B) SZA (METOP-B ) Date (NOAA-19) Time (NOAA-19) Lat,Lon (NOAA-19) SZA (NOAA-19 ) Distance(km) Time Diff (sec)
1 11/01/2017 18:30:15 -77.68, 89.21 87.51 11/01/2017 18:29:01 -77.68, 89.28 87.53 1.81 74
2 11/01/2017 19:20:56 77.66,-103.58 92.47 11/01/2017 19:20:04 77.69,-103.54 92.50 3.35 52
3 11/01/2017 20:11:37 -77.67, 63.79 87.51 11/01/2017 20:11:02 -77.66, 63.86 87.52 1.85 35
4 11/01/2017 21:02:18 77.64,-129.00 92.48 11/01/2017 21:02:05 77.67,-128.96 92.51 3.46 13
5 11/01/2017 21:52:59 -77.65, 38.37 87.51 11/01/2017 21:53:03 -77.64, 38.44 87.51 1.89 4
6 11/01/2017 22:43:40 77.62,-154.42 92.48 11/01/2017 22:44:06 77.65,-154.37 92.52 3.57 26
7 11/01/2017 23:34:20 -77.63, 12.94 87.51 11/01/2017 23:35:03 -77.63, 13.02 87.50 1.94 43
8 11/02/2017 00:25:00 77.65,-179.65 92.53 11/02/2017 00:26:06 77.64,-179.79 92.52 3.61 66




NCC Satellite Simultaneous Nadir Overpasses (SNOs) Prediction Service
